This is the latest recevied weather packets stored in our database for station/object N0NB. If no packets are shown the sender has not sent any weather packets the latest 10 day(s).
| Time | Temp. | Humidity | Pressure | Rain* | Wind** | Luminosity | Snow |
|---|---|---|---|---|---|---|---|
| 1777311316 | 13.89° C | 85% | 1004.1 hPa | 0 mm | - | 99 W/m² | - |
| 1777310716 | 13.89° C | 86% | 1004.3 hPa | 0 mm | - | 186 W/m² | - |
| 1777310116 | 13.89° C | 86% | 1004 hPa | 0 mm | - | 172 W/m² | - |
| 1777309516 | 13.89° C | 87% | 1003.9 hPa | 0 mm | - | 160 W/m² | - |
| 1777308916 | 13.89° C | 88% | 1003.7 hPa | 0 mm | - | 163 W/m² | - |
| 1777308316 | 13.89° C | 89% | 1003.6 hPa | 0 mm | - | 256 W/m² | - |
| 1777307716 | 13.89° C | 90% | 1003.6 hPa | 0 mm | - | 197 W/m² | - |
| 1777307116 | 13.89° C | 89% | 1003 hPa | 0 mm | - | 305 W/m² | - |
| 1777306516 | 13.89° C | 89% | 1003.2 hPa | 0 mm | - | 112 W/m² | - |
| 1777305916 | 13.89° C | 88% | 1003.2 hPa | 0 mm | - | 117 W/m² | - |
| 1777305316 | 14.44° C | 88% | 1003.1 hPa | 0 mm | - | 276 W/m² | - |
| 1777304716 | 13.89° C | 89% | 1003 hPa | 0 mm | - | 337 W/m² | - |
| 1777304116 | 13.89° C | 90% | 1003 hPa | 0 mm | - | 252 W/m² | - |
| 1777303516 | 13.89° C | 89% | 1002.6 hPa | 0 mm | - | 188 W/m² | - |
| 1777302916 | 13.89° C | 91% | 1002.5 hPa | 0 mm | - | 305 W/m² | - |
| 1777302316 | 13.89° C | 91% | 1002.5 hPa | 0 mm | - | 114 W/m² | - |
| 1777301716 | 13.89° C | 92% | 1002.4 hPa | 0 mm | - | 76 W/m² | - |
| 1777301116 | 13.89° C | 92% | 1002.2 hPa | 0 mm | - | 205 W/m² | - |
| 1777300516 | 13.89° C | 93% | 1002.2 hPa | 0 mm | - | 102 W/m² | - |
| 1777299916 | 13.89° C | 93% | 1001.8 hPa | 0 mm | - | 152 W/m² | - |
| 1777299316 | 14.44° C | 93% | 1001.8 hPa | 0 mm | - | 150 W/m² | - |
| 1777298716 | 14.44° C | 93% | 1001.9 hPa | 0 mm | - | 121 W/m² | - |
| 1777298116 | 14.44° C | 94% | 1001.7 hPa | 0 mm | - | 93 W/m² | - |
| 1777297516 | 15° C | 93% | 1001.5 hPa | 0 mm | - | 28 W/m² | - |
| 1777296915 | 15.56° C | 94% | 1001.8 hPa | 0 mm | - | 62 W/m² | - |
* Rain latest hour (hover to see other rain measurements)
** Current wind speed in m/s (hover to see current wind gust speed)